Home   Weather   Nærbø   Past weeks

Flag for Norway Past Weather in Nærbø, Norway — Yesterday and Last 2 Weeks

Now
38 °F

Chilly.


Feels Like: 35 °F
Forecast: 40 / 48 °F
Wind: 3 mph from Southeast

Location: Obrestad

Current Time: Apr 28, 2017 at 4:36:24 am

Latest Report: Apr 28, 2017 at 3:00 am


Visibility: N/A

Pressure: 29.83 "Hg

Humidity: 92%

Dew Point: 36 °F

Location of NærbøLocation

Past Weather in Nærbø — Graph

°F

Nærbø Temperature Yesterday

Maximum temperature yesterday: 44 °F (at 3:00 pm)
Minimum temperature yesterday: 39 °F (at 7:00 am)
Average temperature yesterday: 41 °F

High & Low Weather Summary for the Past Weeks

 TemperatureHumidityPressure
High46 °F (Apr 25, 4:00 pm)100% (Apr 20, 10:00 am)30.61 "Hg (Apr 20, 10:00 am)
Low28 °F (Apr 26, 6:00 am)37% (Apr 25, 6:00 pm)29.50 "Hg (Apr 13, 3:00 am)
Average40 °F81%29.96 "Hg
* Reported Apr 13 3:00 am — Apr 28 3:00 am, Nærbø, Weather by CustomWeather, © 2017

Note: Actual official high and low records may vary slightly from our data, if they occured in-between our weather recording intervals... More about our weather records

Advertising

Nærbø Weather History for the Previous 24 Hours

Scroll right to see more
 ConditionsComfort  
Time TempWeatherWind HumidityBarometerVisibility
3:00 am
Fri, Apr 28
38 °FChilly.3 mph92%29.83 "HgN/A
2:00 am40 °FChilly.3 mph93%29.82 "HgN/A
1:00 am39 °FChilly.2 mph92%29.82 "HgN/A
12:00 am39 °FChilly.2 mph91%29.82 "HgN/A
11:00 pm
Thu, Apr 27
41 °FQuite cool.5 mph90%29.81 "HgN/A
10:00 pm40 °FChilly.5 mph91%29.81 "HgN/A
9:00 pm42 °FQuite cool.7 mph90%29.80 "HgN/A
8:00 pm43 °FQuite cool.7 mph89%29.79 "HgN/A
7:00 pm43 °FQuite cool.8 mph87%29.78 "HgN/A
6:00 pm43 °FQuite cool.6 mph90%29.78 "HgN/A
5:00 pm43 °FQuite cool.1 mph91%N/AN/A
4:00 pm44 °FQuite cool.2 mph85%29.76 "HgN/A
3:00 pm44 °FQuite cool.5 mph87%29.75 "HgN/A
2:00 pm44 °FQuite cool.5 mph86%29.75 "HgN/A
1:00 pm43 °FQuite cool.6 mph87%29.74 "HgN/A
12:00 pm42 °FQuite cool.7 mph90%29.73 "HgN/A
11:00 am41 °FQuite cool.8 mph96%N/AN/A
10:00 am40 °FQuite cool.8 mph96%29.71 "HgN/A
9:00 am40 °FQuite cool.10 mph93%29.70 "HgN/A
8:00 am40 °FChilly.9 mph93%29.70 "HgN/A
7:00 am39 °FChilly.7 mph93%N/AN/A
6:00 am39 °FChilly.7 mph92%29.73 "HgN/A
5:00 am40 °FChilly.8 mph86%29.76 "HgN/A
4:00 am40 °FQuite cool.7 mph76%29.79 "HgN/A
Weather by CustomWeather, © 2017

See weather overviewHow to use our weather pages